sat.trackr.live / text

‹ back to catalog

SNUGLITE

NORAD 43784 · 2018-099AC

PAYLOAD ACTIVE UNKNOWN

§ Identity

Operator
Country
SKOR
Launch date
2018-12-03
Launch site
AFWTR
Launch vehicle
Mass (kg)
RCS (m²)

External: N2YO · Heavens-Above · Gunter

§ Orbital elements

Epoch: 2026-09-20T02:14:40.307712Z

Period
94.18 min
Inclination
97.3771°
Eccentricity
0.0001658
Mean motion
15.28939619 rev/d
Perigee alt
477.8 km
Apogee alt
480.1 km
Semi-major
6,857.1 km
B*
2.6327e-4
RAAN
316.5096°
Arg perigee
348.3480°
Mean anomaly
11.7721°
Rev number
42,781

§ Raw data

SNUGLITE1 43784U 18099AC  26263.09352208  .00007326  00000+0  26327-3 0  99912 43784  97.3771 316.5096 0001658 348.3480  11.7721 15.28939619427816

JSON: /api/v1/satellites/43784 · /tle

For live sub-satellite position, see the globe view (requires WebGL).

§ Visibility from observer

Set your observer location to see the next 7 days of passes ≥ 10°. The values pass through the URL so the page stays shareable.

No JS? Fill the form by hand. The geolocation button needs JavaScript.

§ Radio — SatNOGS DB

ModeDescriptionDownlinkUplink
GMSK GMSK9k6 TLM 437.275 MHz

1 transmitter · refreshed weekly from db.satnogs.org